This is the latest recevied weather packets stored in our database for station/object NR0Q. If no packets are shown the sender has not sent any weather packets the latest 10 day(s).
| Time | Temp. | Humidity | Pressure | Rain* | Wind** | Luminosity | Snow |
|---|---|---|---|---|---|---|---|
| 1777740301 | 19.44° C | 38% | 1022.7 hPa | 0 mm | - | - | - |
| 1777739401 | 19.44° C | 38% | 1022.7 hPa | 0 mm | - | - | - |
| 1777738501 | 19.44° C | 37% | 1022.7 hPa | 0 mm | - | - | - |
| 1777737601 | 18.33° C | 39% | 1022.7 hPa | 0 mm | - | - | - |
| 1777736701 | 18.33° C | 39% | 1022.7 hPa | 0 mm | - | - | - |
| 1777735801 | 16.67° C | 42% | 1022.7 hPa | 0 mm | - | - | - |
| 1777734901 | 17.78° C | 41% | 1022.7 hPa | 0 mm | - | - | - |
| 1777734002 | 17.22° C | 42% | 1022.7 hPa | 0 mm | - | - | - |
| 1777733101 | 15.56° C | 45% | 1022.7 hPa | 0 mm | - | - | - |
| 1777732201 | 16.67° C | 49% | 1022.7 hPa | 0 mm | - | - | - |
| 1777731301 | 16.11° C | 51% | 1022.7 hPa | 0 mm | - | - | - |
| 1777730401 | 15.56° C | 51% | 1022.7 hPa | 0 mm | - | - | - |
| 1777729501 | 15.56° C | 54% | 1022.7 hPa | 0 mm | - | - | - |
| 1777728601 | 15.56° C | 56% | 1022.7 hPa | 0 mm | - | - | - |
| 1777726801 | 14.44° C | 62% | 1021.7 hPa | 0 mm | - | - | - |
| 1777725901 | 13.33° C | 66% | 1021.7 hPa | 0 mm | - | - | - |
| 1777725003 | 11.67° C | 73% | 1021.7 hPa | 0 mm | - | - | - |
| 1777724101 | 11.11° C | 75% | 1021.7 hPa | 0 mm | - | - | - |
| 1777723201 | 11.11° C | 75% | 1021.7 hPa | 0 mm | - | - | - |
| 1777722301 | 10.56° C | 80% | 1020.7 hPa | 0 mm | - | - | - |
| 1777721401 | 10° C | 79% | 1020.7 hPa | 0 mm | - | - | - |
| 1777720501 | 10° C | 80% | 1020.7 hPa | 0 mm | - | - | - |
| 1777719601 | 10° C | 78% | 1020.7 hPa | 0 mm | - | - | - |
| 1777718701 | 10.56° C | 77% | 1020.7 hPa | 0 mm | - | - | - |
| 1777717801 | 10.56° C | 76% | 1020.7 hPa | 0 mm | - | - | - |
* Rain latest hour (hover to see other rain measurements)
** Current wind speed in m/s (hover to see current wind gust speed)